This is the latest recevied weather packets stored in our database for station/object K4IR. If no packets are shown the sender has not sent any weather packets the latest 10 day(s).
| Time | Temp. | Humidity | Pressure | Rain* | Wind** | Luminosity | Snow |
|---|---|---|---|---|---|---|---|
| 1777560809 | 17.78° C | 96% | 1010.9 hPa | 0.51 mm | - | 192 W/m² | - |
| 1777560205 | 17.78° C | 96% | 1010.7 hPa | 0.51 mm | - | 185 W/m² | - |
| 1777559602 | 17.78° C | 96% | 1010.7 hPa | 0 mm | - | 139 W/m² | - |
| 1777559002 | 17.22° C | 95% | 1010.4 hPa | 0 mm | - | 65 W/m² | - |
| 1777558400 | 17.22° C | 96% | 1009.5 hPa | 0 mm | - | 102 W/m² | - |
| 1777557799 | 17.22° C | 96% | 1009 hPa | 0.51 mm | - | 96 W/m² | - |
| 1777557198 | 17.78° C | 96% | 1008.9 hPa | 0.51 mm | - | 56 W/m² | - |
| 1777556595 | 17.22° C | 96% | 1008.4 hPa | 3.56 mm | - | 46 W/m² | - |
| 1777555991 | 16.67° C | 95% | 1008.8 hPa | 4.83 mm | - | 27 W/m² | - |
| 1777555389 | 17.22° C | 94% | 1009.6 hPa | 5.33 mm | - | 20 W/m² | - |
| 1777554788 | 18.33° C | 93% | 1010.1 hPa | 21.59 mm | - | 13 W/m² | - |
| 1777554188 | 18.89° C | 90% | 1009.9 hPa | 0.51 mm | - | 7 W/m² | - |
| 1777553587 | 19.44° C | 87% | 1008.6 hPa | 0 mm | - | 17 W/m² | - |
| 1777552985 | 19.44° C | 87% | 1008.2 hPa | 0 mm | - | 25 W/m² | - |
| 1777552382 | 19.44° C | 90% | 1008 hPa | 0 mm | - | 37 W/m² | - |
| 1777551781 | 18.89° C | 92% | 1007.9 hPa | 0 mm | - | 82 W/m² | - |
| 1777551181 | 18.89° C | 95% | 1008.2 hPa | 0 mm | - | 66 W/m² | - |
| 1777550581 | 18.89° C | 96% | 1008.5 hPa | 0 mm | - | 35 W/m² | - |
| 1777549979 | 18.33° C | 97% | 1008.3 hPa | 0 mm | - | 32 W/m² | - |
| 1777549377 | 18.33° C | 97% | 1008.3 hPa | 0 mm | - | 35 W/m² | - |
| 1777548776 | 18.33° C | 97% | 1008.4 hPa | 0 mm | - | 39 W/m² | - |
| 1777548176 | 18.33° C | 97% | 1007.9 hPa | 0 mm | - | 22 W/m² | - |
| 1777547574 | 18.33° C | 97% | 1007.8 hPa | 0 mm | - | 16 W/m² | - |
| 1777546975 | 18.33° C | 97% | 1007.8 hPa | 0 mm | - | 16 W/m² | - |
| 1777546374 | 18.33° C | 97% | 1007.7 hPa | 0 mm | - | 11 W/m² | - |
* Rain latest hour (hover to see other rain measurements)
** Current wind speed in m/s (hover to see current wind gust speed)